Powrót do katalogu

SL-8 R/B

AktywnyVLEO
NORAD 3230·ROCKET BODY·🇷🇺 Russia

Wystrzelony May 7, 1968 z Plesetsk Cosmodrome

Loading…

Następne Przeloty (najbliższe 24 godziny)

TLE

ŚwieżeSource: Space-Track

Epoka: Sep 14, 2026, 12:22 UTC

1 03230U 68040B   26257.51546610  .00001786  00000-0  13096-3 0  9990
2 03230  74.0282 287.5442 0022915  53.8566 306.4739 15.04200508118396

Śledź SL-8 R/B w czasie rzeczywistym z AllMySat

Download on the App Store